sat.trackr.live / text

‹ back to catalog

UFO 2 (USA 95)

NORAD 22787 · 1993-056A

PAYLOAD ACTIVE UNKNOWN

§ Identity

Operator
Country
US
Launch date
1993-09-03
Launch site
AFETR
Launch vehicle
Mass (kg)
RCS (m²)
0.00

Purposes: comms

External: N2YO · Heavens-Above · Gunter

§ Orbital elements

Epoch: 2026-09-17T22:38:28.597920Z

Period
1,436.08 min
Inclination
11.9282°
Eccentricity
0.0001952
Mean motion
1.00272802 rev/d
Perigee alt
35,778.1 km
Apogee alt
35,794.5 km
Semi-major
42,164.4 km
B*
0.0000e+0
RAAN
3.0270°
Arg perigee
242.9212°
Mean anomaly
119.1892°
Rev number
11,948

§ Raw data

UFO 2 (USA 95)1 22787U 93056A   26260.94338655  .00000124  00000+0  00000+0 0  99932 22787  11.9282   3.0270 0001952 242.9212 119.1892  1.00272802119488

JSON: /api/v1/satellites/22787 · /tle

For live sub-satellite position, see the globe view (requires WebGL).

§ Visibility from observer

Set your observer location to see the next 7 days of passes ≥ 10°. The values pass through the URL so the page stays shareable.

No JS? Fill the form by hand. The geolocation button needs JavaScript.